Location: Aldenham
(51.6667°N, 0.3500°W)
Time: 06:10:27
(UTC+00:00)

Meteor 2-12 Rocket - Pass Details

Date: 18 November 2025
Orbit: 934 x 958 km, 82.5° (Epoch: 16 December)

Event Time Altitude Azimuth Distance (km) Brightness Sun altitude
Rises 16:59:47 0° 350° (N) 3,630 7.4 -8.1°
Reaches altitude 10° 17:02:20 10° 355° (N) 2,678 6.7 -8.5°
Maximum altitude 17:08:23 60° 75° (ENE) 1,075 4.5 -9.4°
Drops below altitude 10° 17:14:21 10° 155° (SSE) 2,646 6.7 -10.3°
Sets 17:16:52 0° 159° (SSE) 3,583 7.4 -10.6°
